TimeCDT,TemperatureF,Dew PointF,Humidity,Sea Level PressureIn,VisibilityMPH,Wind Direction,Wind SpeedMPH,Gust SpeedMPH,PrecipitationIn,Events,Conditions,WindDirDegrees,DateUTC
12:13 AM,64.4,62.6,94,29.90,7.0,Calm,Calm,-,N/A,,Clear,0,2013-09-07 05:13:00
12:32 AM,66.2,64.4,94,29.89,7.0,Calm,Calm,-,N/A,,Clear,0,2013-09-07 05:32:00
12:53 AM,68.0,66.2,94,29.86,10.0,SSW,6.9,-,N/A,Rain,Light Rain,200,2013-09-07 05:53:00
1:13 AM,66.2,64.4,94,29.88,7.0,NNE,3.5,-,N/A,,Clear,20,2013-09-07 06:13:00
1:33 AM,64.4,64.4,100,29.88,4.0,SW,3.5,-,N/A,,Clear,230,2013-09-07 06:33:00
1:52 AM,64.4,64.4,100,29.89,1.8,Calm,Calm,-,N/A,,Mist,0,2013-09-07 06:52:00
2:13 AM,64.4,64.4,100,29.89,5.0,Calm,Calm,-,N/A,,Clear,0,2013-09-07 07:13:00
2:33 AM,64.4,64.4,100,29.89,1.8,Calm,Calm,-,N/A,,Mist,0,2013-09-07 07:33:00
2:52 AM,62.6,62.6,100,29.90,0.5,Calm,Calm,-,N/A,Fog,Fog,0,2013-09-07 07:52:00
3:13 AM,62.6,60.8,94,29.91,0.5,Calm,Calm,-,N/A,Fog,Fog,0,2013-09-07 08:13:00
3:33 AM,62.6,60.8,94,29.91,0.5,Calm,Calm,-,N/A,Fog,Fog,0,2013-09-07 08:33:00
3:52 AM,62.6,60.8,94,29.91,0.2,Calm,Calm,-,N/A,Fog,Fog,0,2013-09-07 08:52:00
4:13 AM,62.6,60.8,94,29.91,0.8,Calm,Calm,-,N/A,,Overcast,0,2013-09-07 09:13:00
4:33 AM,60.8,60.8,100,29.92,1.0,Calm,Calm,-,N/A,,Mostly Cloudy,0,2013-09-07 09:33:00
4:53 AM,60.8,60.8,100,29.92,0.2,Calm,Calm,-,N/A,Fog,Fog,0,2013-09-07 09:53:00
5:13 AM,60.8,60.8,100,29.92,4.0,Calm,Calm,-,N/A,,Mostly Cloudy,0,2013-09-07 10:13:00
5:32 AM,60.8,59.0,94,29.92,4.0,Calm,Calm,-,N/A,,Scattered Clouds,0,2013-09-07 10:32:00
5:53 AM,59.0,57.2,94,29.93,3.0,Calm,Calm,-,N/A,,Scattered Clouds,0,2013-09-07 10:53:00
6:13 AM,57.2,57.2,100,29.93,3.0,Calm,Calm,-,N/A,,Scattered Clouds,0,2013-09-07 11:13:00
6:32 AM,59.0,57.2,94,29.94,0.2,Calm,Calm,-,N/A,Fog,Fog,0,2013-09-07 11:32:00
6:53 AM,57.2,57.2,100,29.94,2.5,Calm,Calm,-,N/A,,Clear,0,2013-09-07 11:53:00
7:13 AM,60.8,60.8,100,29.94,7.0,Calm,Calm,-,N/A,,Clear,0,2013-09-07 12:13:00
7:32 AM,60.8,60.8,100,29.94,4.0,Calm,Calm,-,N/A,,Clear,0,2013-09-07 12:32:00
7:53 AM,62.6,62.6,100,29.95,10.0,Calm,Calm,-,N/A,,Scattered Clouds,0,2013-09-07 12:53:00
8:13 AM,64.4,62.6,94,29.95,10.0,Calm,Calm,-,0.01,,Scattered Clouds,0,2013-09-07 13:13:00
8:32 AM,64.4,62.6,94,29.96,10.0,Calm,Calm,-,0.01,,Scattered Clouds,0,2013-09-07 13:32:00
8:53 AM,66.2,64.4,94,29.96,10.0,NE,3.5,-,0.01,,Clear,40,2013-09-07 13:53:00
9:13 AM,68.0,64.4,88,29.97,10.0,NNE,4.6,-,N/A,,Scattered Clouds,30,2013-09-07 14:13:00
9:32 AM,68.0,64.4,88,29.98,10.0,NNE,5.8,-,N/A,,Mostly Cloudy,30,2013-09-07 14:32:00
9:53 AM,68.0,64.4,88,29.99,10.0,NNE,4.6,-,N/A,,Overcast,20,2013-09-07 14:53:00
10:13 AM,68.0,64.4,88,30.00,10.0,North,4.6,-,N/A,,Overcast,10,2013-09-07 15:13:00
10:32 AM,69.8,62.6,78,30.01,10.0,NNE,6.9,-,N/A,,Overcast,20,2013-09-07 15:32:00
10:53 AM,71.6,64.4,78,30.02,10.0,North,4.6,-,N/A,,Scattered Clouds,10,2013-09-07 15:53:00
11:13 AM,71.6,62.6,73,30.02,10.0,NNE,6.9,-,N/A,,Clear,30,2013-09-07 16:13:00
11:32 AM,73.4,62.6,69,30.02,10.0,NE,8.1,-,N/A,,Clear,40,2013-09-07 16:32:00
11:53 AM,73.4,60.8,65,30.02,10.0,NNE,8.1,-,N/A,,Clear,20,2013-09-07 16:53:00
12:13 PM,75.2,59.0,57,30.03,10.0,NNE,6.9,-,N/A,,Clear,30,2013-09-07 17:13:00
12:32 PM,75.2,55.4,50,30.02,10.0,NE,10.4,-,N/A,,Clear,40,2013-09-07 17:32:00
12:53 PM,75.2,55.4,50,30.02,10.0,NNE,4.6,-,N/A,,Clear,20,2013-09-07 17:53:00
1:13 PM,75.2,57.2,53,30.03,10.0,NE,6.9,16.1,N/A,,Clear,40,2013-09-07 18:13:00
1:32 PM,75.2,57.2,53,30.04,10.0,ENE,9.2,16.1,N/A,,Clear,60,2013-09-07 18:32:00
1:52 PM,75.2,57.2,53,30.04,10.0,ENE,9.2,-,N/A,,Clear,70,2013-09-07 18:52:00
2:13 PM,75.2,57.2,53,30.04,10.0,NE,9.2,-,N/A,,Clear,50,2013-09-07 19:13:00
2:32 PM,75.2,55.4,50,30.04,10.0,NNE,8.1,-,N/A,,Clear,30,2013-09-07 19:32:00
2:52 PM,75.2,53.6,47,30.04,10.0,NNE,4.6,-,N/A,,Clear,30,2013-09-07 19:52:00
3:13 PM,75.2,53.6,47,30.04,10.0,NE,8.1,-,N/A,,Clear,40,2013-09-07 20:13:00
3:32 PM,75.2,55.4,50,30.05,10.0,North,5.8,-,N/A,,Clear,10,2013-09-07 20:32:00
3:53 PM,75.2,55.4,50,30.06,10.0,NNE,6.9,-,N/A,,Clear,20,2013-09-07 20:53:00
4:13 PM,75.2,55.4,50,30.06,10.0,NE,9.2,-,N/A,,Clear,40,2013-09-07 21:13:00
4:32 PM,75.2,53.6,47,30.06,10.0,NNE,6.9,-,N/A,,Clear,30,2013-09-07 21:32:00
4:53 PM,75.2,53.6,47,30.06,10.0,NNE,8.1,-,N/A,,Clear,20,2013-09-07 21:53:00
5:13 PM,73.4,53.6,50,30.07,10.0,NNE,9.2,-,N/A,,Clear,30,2013-09-07 22:13:00
5:33 PM,73.4,55.4,53,30.07,10.0,NE,4.6,-,N/A,,Clear,40,2013-09-07 22:33:00
5:52 PM,73.4,53.6,50,30.08,10.0,NNE,4.6,-,N/A,,Clear,20,2013-09-07 22:52:00
6:13 PM,71.6,53.6,53,30.08,10.0,NNE,5.8,-,N/A,,Clear,30,2013-09-07 23:13:00
6:33 PM,71.6,51.8,50,30.08,10.0,NE,4.6,-,N/A,,Clear,40,2013-09-07 23:33:00
6:52 PM,69.8,51.8,53,30.09,10.0,Calm,Calm,-,N/A,,Clear,0,2013-09-07 23:52:00
7:13 PM,66.2,53.6,64,30.10,10.0,Calm,Calm,-,N/A,,Clear,0,2013-09-08 00:13:00
7:32 PM,66.2,53.6,64,30.11,10.0,Calm,Calm,-,N/A,,Clear,0,2013-09-08 00:32:00
7:53 PM,66.2,53.6,64,30.12,10.0,Calm,Calm,-,N/A,,Clear,0,2013-09-08 00:53:00
8:13 PM,62.6,53.6,72,30.12,10.0,Calm,Calm,-,N/A,,Clear,0,2013-09-08 01:13:00
8:32 PM,59.0,53.6,82,30.13,10.0,Calm,Calm,-,N/A,,Clear,0,2013-09-08 01:32:00
8:53 PM,62.6,53.6,72,30.14,10.0,East,3.5,-,N/A,,Clear,100,2013-09-08 01:53:00
9:13 PM,60.8,53.6,77,30.14,10.0,Calm,Calm,-,N/A,,Clear,0,2013-09-08 02:13:00
9:32 PM,57.2,53.6,88,30.14,10.0,Calm,Calm,-,N/A,,Clear,0,2013-09-08 02:32:00
9:53 PM,57.2,53.6,88,30.14,10.0,Calm,Calm,-,N/A,,Clear,0,2013-09-08 02:53:00
10:13 PM,55.4,51.8,88,30.15,10.0,Calm,Calm,-,N/A,,Clear,0,2013-09-08 03:13:00
10:32 PM,53.6,51.8,94,30.15,10.0,Calm,Calm,-,N/A,,Clear,0,2013-09-08 03:32:00
10:53 PM,51.8,50.0,94,30.15,10.0,Calm,Calm,-,N/A,,Clear,0,2013-09-08 03:53:00
11:13 PM,51.8,50.0,94,30.14,10.0,Calm,Calm,-,N/A,,Clear,0,2013-09-08 04:13:00
11:32 PM,51.8,48.2,88,30.15,10.0,Calm,Calm,-,N/A,,Clear,0,2013-09-08 04:32:00
11:53 PM,50.0,48.2,94,30.15,10.0,Calm,Calm,-,N/A,,Clear,0,2013-09-08 04:53:00